GALAXY 34 (G-34)

Last updated on Sat Aug 15 2026 00:03:02 GMT+0000 (Coordinated Universal Time)

1 54027U 22128B 26225.97217355 .00000042 00000+0 00000+0 0 9993 2 54027 0.0098 122.9750 0001525 39.0102 21.3880 1.00272674 14490
UTC large
Height (km)
Speed (km/s)
/
Latitude / Longitude
Inclination (degrees)
Orbital Period (minutes)
Azimuth
Elevation
Range (km)
Doppler Factor

Next 0 passes for location: London (51.5072 / 0.1276)

No passes found over London.
GALAXY 34 (G-34)